| time (UTC) | temp F | wind direction | speed knots | gust knots | rain 1hr in | rain 24hr in | rain mn in | humidity % | barometer mb |
| 20260504004531 | 56 | 261 | 1.7 | 5.2 | 0.00 | 0.00 | 0.00 | 38 | 1011.8 |
| 20260504004031 | 57 | 249 | 1.7 | 5.2 | 0.00 | 0.00 | 0.00 | 38 | 1011.8 |
| 20260504003531 | 57 | 272 | 1.7 | 4.3 | 0.00 | 0.00 | 0.00 | 37 | 1011.8 |
| 20260504003030 | 57 | 259 | 0.9 | 4.3 | 0.00 | 0.00 | 0.00 | 37 | 1011.6 |
| 20260504002531 | 57 | 256 | 1.7 | 4.3 | 0.00 | 0.00 | 0.00 | 37 | 1011.5 |
| 20260504002030 | 57 | 272 | 2.6 | 4.3 | 0.00 | 0.00 | 0.00 | 36 | 1011.4 |
| 20260504001530 | 58 | 268 | 0.9 | 3.5 | 0.00 | 0.00 | 0.00 | 36 | 1011.3 |
| 20260504001030 | 58 | 243 | 1.7 | 4.3 | 0.00 | 0.00 | 0.00 | 35 | 1011.3 |
| 20260504000532 | 58 | 235 | 1.7 | 4.3 | 0.00 | 0.00 | 0.00 | 35 | 1011.2 |
| 20260504000029 | 58 | 359 | 1.7 | 5.2 | 0.00 | 0.00 | 0.00 | 34 | 1011.2 |
| 20260503235529 | 59 | 291 | 2.6 | 7.0 | 0.00 | 0.00 | 0.00 | 34 | 1011.1 |
| 20260503235029 | 59 | 276 | 2.6 | 7.8 | 0.00 | 0.00 | 0.00 | 33 | 1011.1 |
| 20260503234528 | 59 | 359 | 3.5 | 11.3 | 0.00 | 0.00 | 0.00 | 33 | 1011.1 |
| 20260503234029 | 59 | 297 | 4.3 | 9.6 | 0.00 | 0.00 | 0.00 | 32 | 1011.0 |
| 20260503233528 | 60 | 294 | 1.7 | 9.6 | 0.00 | 0.00 | 0.00 | 33 | 1011.1 |
| 20260503233029 | 60 | 334 | 4.3 | 9.6 | 0.00 | 0.00 | 0.00 | 32 | 1010.9 |
| 20260503232528 | 60 | 241 | 3.5 | 14.8 | 0.00 | 0.00 | 0.00 | 32 | 1010.9 |
| 20260503232028 | 60 | 245 | 5.2 | 11.3 | 0.00 | 0.00 | 0.00 | 32 | 1010.9 |
| 20260503231528 | 60 | 245 | 5.2 | 12.2 | 0.00 | 0.00 | 0.00 | 31 | 1010.8 |
| 20260503231028 | 60 | 324 | 4.3 | 13.0 | 0.00 | 0.00 | 0.00 | 32 | 1010.8 |
| 20260503230528 | 60 | 359 | 4.3 | 13.9 | 0.00 | 0.00 | 0.00 | 32 | 1010.8 |
| 20260503230028 | 60 | 359 | 7.0 | 13.9 | 0.00 | 0.00 | 0.00 | 31 | 1010.7 |
| 20260503225527 | 61 | 290 | 4.3 | 12.2 | 0.00 | 0.00 | 0.00 | 32 | 1010.7 |
| 20260503225027 | 61 | 270 | 5.2 | 10.4 | 0.00 | 0.00 | 0.00 | 32 | 1010.6 |
| 20260503224526 | 61 | 359 | 3.5 | 12.2 | 0.00 | 0.00 | 0.00 | 31 | 1010.7 |
| 20260503224027 | 61 | 337 | 6.1 | 11.3 | 0.00 | 0.00 | 0.00 | 30 | 1010.8 |
| 20260503223525 | 61 | 253 | 4.3 | 12.2 | 0.00 | 0.00 | 0.00 | 30 | 1010.6 |
| 20260503223026 | 61 | 308 | 5.2 | 12.2 | 0.00 | 0.00 | 0.00 | 30 | 1010.6 |
| 20260503222525 | 61 | 334 | 5.2 | 15.6 | 0.00 | 0.00 | 0.00 | 29 | 1010.7 |
| 20260503222026 | 61 | 335 | 8.7 | 15.6 | 0.00 | 0.00 | 0.00 | 29 | 1010.6 |
| 20260503221532 | 61 | 359 | 7.8 | 12.2 | 0.00 | 0.00 | 0.00 | 29 | 1010.5 |
| 20260503221026 | 62 | 279 | 5.2 | 10.4 | 0.00 | 0.00 | 0.00 | 30 | 1010.6 |
| 20260503220527 | 62 | 286 | 5.2 | 13.9 | 0.00 | 0.00 | 0.00 | 29 | 1010.5 |
| 20260503220025 | 62 | 313 | 5.2 | 13.9 | 0.00 | 0.00 | 0.00 | 29 | 1010.6 |
| 20260503215523 | 61 | 262 | 4.3 | 12.2 | 0.00 | 0.00 | 0.00 | 30 | 1010.6 |
| 20260503215022 | 61 | 359 | 6.1 | 12.2 | 0.00 | 0.00 | 0.00 | 29 | 1010.6 |
| 20260503214525 | 61 | 293 | 5.2 | 14.8 | 0.00 | 0.00 | 0.00 | 29 | 1010.6 |
| 20260503214022 | 61 | 16 | 7.0 | 18.2 | 0.00 | 0.00 | 0.00 | 29 | 1010.6 |
| 20260503213524 | 61 | 293 | 8.7 | 18.2 | 0.00 | 0.00 | 0.00 | 29 | 1010.4 |
| 20260503213029 | 60 | 272 | 9.6 | 17.4 | 0.00 | 0.00 | 0.00 | 29 | 1010.5 |
| 20260503212522 | 61 | 278 | 8.7 | 14.8 | 0.00 | 0.00 | 0.00 | 29 | 1010.6 |
| 20260503212020 | 60 | 354 | 6.1 | 14.8 | 0.00 | 0.00 | 0.00 | 30 | 1010.5 |
| 20260503211521 | 60 | 318 | 7.8 | 17.4 | 0.00 | 0.00 | 0.00 | 29 | 1010.5 |
| 20260503211019 | 60 | 276 | 8.7 | 17.4 | 0.00 | 0.00 | 0.00 | 29 | 1010.5 |
| 20260503210519 | 60 | 310 | 10.4 | 16.5 | 0.00 | 0.00 | 0.00 | 29 | 1010.5 |
| 20260503210018 | 60 | 359 | 6.1 | 13.0 | 0.00 | 0.00 | 0.00 | 30 | 1010.5 |
| 20260503205518 | 60 | 12 | 9.6 | 16.5 | 0.00 | 0.00 | 0.00 | 30 | 1010.4 |
| 20260503205024 | 60 | 312 | 10.4 | 16.5 | 0.00 | 0.00 | 0.00 | 30 | 1010.4 |
| 20260503204523 | 60 | 359 | 9.6 | 16.5 | 0.00 | 0.00 | 0.00 | 30 | 1010.4 |
| 20260503204016 | 59 | 287 | 6.1 | 20.9 | 0.00 | 0.00 | 0.00 | 31 | 1010.3 |
| 20260503203519 | 59 | 342 | 8.7 | 20.9 | 0.00 | 0.00 | 0.00 | 30 | 1010.4 |
| 20260503203016 | 59 | 334 | 10.4 | 17.4 | 0.00 | 0.00 | 0.00 | 31 | 1010.4 |
| 20260503202523 | 59 | 260 | 7.0 | 18.2 | 0.00 | 0.00 | 0.00 | 32 | 1010.5 |
| 20260503202016 | 59 | 4 | 11.3 | 20.0 | 0.00 | 0.00 | 0.00 | 30 | 1010.6 |
| 20260503201526 | 59 | 339 | 7.0 | 14.8 | 0.00 | 0.00 | 0.00 | 32 | 1010.6 |
| 20260503201014 | 59 | 359 | 7.0 | 15.6 | 0.00 | 0.00 | 0.00 | 32 | 1010.6 |
| 20260503200514 | 58 | 350 | 7.8 | 16.5 | 0.00 | 0.00 | 0.00 | 32 | 1010.7 |
| 20260503200013 | 59 | 359 | 9.6 | 17.4 | 0.00 | 0.00 | 0.00 | 31 | 1010.7 |
| 20260503195513 | 58 | 314 | 7.8 | 17.4 | 0.00 | 0.00 | 0.00 | 32 | 1010.7 |
| 20260503195012 | 59 | 293 | 7.8 | 16.5 | 0.00 | 0.00 | 0.00 | 32 | 1010.7 |
| 20260503194511 | 58 | 287 | 5.2 | 18.2 | 0.00 | 0.00 | 0.00 | 32 | 1010.7 |
| 20260503194011 | 58 | 359 | 8.7 | 18.2 | 0.00 | 0.00 | 0.00 | 33 | 1010.9 |
| 20260503193511 | 58 | 16 | 5.2 | 19.1 | 0.00 | 0.00 | 0.00 | 34 | 1010.9 |
| 20260503193008 | 57 | 20 | 8.7 | 19.1 | 0.00 | 0.00 | 0.00 | 34 | 1010.9 |
| 20260503192508 | 57 | 8 | 8.7 | 20.0 | 0.00 | 0.00 | 0.00 | 33 | 1011.0 |
| 20260503192013 | 57 | 359 | 9.6 | 24.3 | 0.00 | 0.00 | 0.00 | 34 | 1011.1 |
| 20260503191508 | 56 | 311 | 12.2 | 24.3 | 0.00 | 0.00 | 0.00 | 34 | 1011.0 |
| 20260503191008 | 57 | 332 | 7.8 | 21.7 | 0.00 | 0.00 | 0.00 | 34 | 1011.1 |
| 20260503190507 | 57 | 359 | 12.2 | 21.7 | 0.00 | 0.00 | 0.00 | 34 | 1011.1 |
| 20260503190017 | 57 | 17 | 7.0 | 19.1 | 0.00 | 0.00 | 0.00 | 36 | 1011.0 |
| 20260503185506 | 56 | 359 | 4.3 | 19.1 | 0.00 | 0.00 | 0.00 | 36 | 1011.0 |
| 20260503185005 | 57 | 321 | 10.4 | 16.5 | 0.00 | 0.00 | 0.00 | 35 | 1011.1 |
| 20260503184507 | 57 | 269 | 5.2 | 13.0 | 0.00 | 0.00 | 0.00 | 37 | 1011.1 |
| 20260503184004 | 56 | 289 | 4.3 | 17.4 | 0.00 | 0.00 | 0.00 | 37 | 1011.4 |
| 20260503183507 | 56 | 324 | 7.0 | 18.2 | 0.00 | 0.00 | 0.00 | 36 | 1011.4 |
| 20260503183011 | 56 | 359 | 8.7 | 18.2 | 0.00 | 0.00 | 0.00 | 37 | 1011.5 |
| 20260503182502 | 56 | 341 | 5.2 | 18.2 | 0.00 | 0.00 | 0.00 | 37 | 1011.4 |
| 20260503182001 | 56 | 271 | 9.6 | 18.2 | 0.00 | 0.00 | 0.00 | 37 | 1011.5 |
| 20260503181623 | 55 | 318 | 9.6 | 17.4 | 0.00 | 0.00 | 0.00 | 38 | 1011.4 |
| 20260503181100 | 54 | 308 | 7.8 | 14.8 | 0.00 | 0.00 | 0.00 | 39 | 1011.5 |
| 20260503180600 | 54 | 332 | 6.1 | 17.4 | 0.00 | 0.00 | 0.00 | 40 | 1011.6 |
| 20260503180134 | 55 | 300 | 9.6 | 17.4 | 0.00 | 0.00 | 0.00 | 39 | 1011.5 |
| 20260503175601 | 54 | 345 | 9.6 | 16.5 | 0.00 | 0.00 | 0.00 | 40 | 1011.5 |
| 20260503175057 | 54 | 322 | 8.7 | 16.5 | 0.00 | 0.00 | 0.00 | 40 | 1011.6 |
| 20260503174558 | 53 | 46 | 7.0 | 18.2 | 0.00 | 0.00 | 0.00 | 41 | 1011.7 |
| 20260503174056 | 53 | 359 | 10.4 | 18.2 | 0.00 | 0.00 | 0.00 | 41 | 1011.8 |
| 20260503173556 | 53 | 318 | 9.6 | 15.6 | 0.00 | 0.00 | 0.00 | 42 | 1011.9 |
| 20260503173100 | 53 | 4 | 7.0 | 17.4 | 0.00 | 0.00 | 0.00 | 42 | 1011.7 |
| 20260503172600 | 53 | 295 | 9.6 | 17.4 | 0.00 | 0.00 | 0.00 | 40 | 1011.7 |
| 20260503172055 | 53 | 4 | 5.2 | 18.2 | 0.00 | 0.00 | 0.00 | 41 | 1011.8 |
| 20260503171556 | 53 | 359 | 8.7 | 18.2 | 0.00 | 0.00 | 0.00 | 42 | 1011.9 |
| 20260503171055 | 53 | 295 | 9.6 | 17.4 | 0.00 | 0.00 | 0.00 | 41 | 1011.9 |
| 20260503170555 | 53 | 349 | 7.0 | 14.8 | 0.00 | 0.00 | 0.00 | 41 | 1011.8 |
| 20260503150550 | 50 | 359 | 7.8 | 15.6 | 0.00 | 0.00 | 0.00 | 43 | 1012.2 |
| 20260503131041 | 47 | 8 | 7.8 | 15.6 | 0.00 | 0.00 | 0.00 | 55 | 1012.2 |
| 20260503130542 | 47 | 329 | 8.7 | 15.6 | 0.00 | 0.00 | 0.00 | 54 | 1012.2 |
| 20260503110536 | 45 | 309 | 8.7 | 13.9 | 0.00 | 0.00 | 0.00 | 57 | 1011.6 |
| 20260503081515 | 47 | 18 | 4.3 | 11.3 | 0.00 | 0.00 | 0.00 | 52 | 1010.5 |
| 20260503081009 | 47 | 43 | 5.2 | 11.3 | 0.00 | 0.00 | 0.00 | 51 | 1010.3 |
| 20260503080510 | 47 | 359 | 5.2 | 13.0 | 0.00 | 0.00 | 0.00 | 51 | 1010.2 |
| 20260503072504 | 48 | 48 | 4.3 | 10.4 | 0.00 | 0.00 | 0.00 | 50 | 1010.4 |
| 20260503072003 | 48 | 41 | 6.1 | 11.3 | 0.00 | 0.00 | 0.00 | 49 | 1010.3 |
| 20260503071501 | 48 | 28 | 7.0 | 11.3 | 0.00 | 0.00 | 0.00 | 49 | 1010.3 |
| 20260503071100 | 48 | 43 | 5.2 | 12.2 | 0.00 | 0.00 | 0.00 | 49 | 1010.4 |
| 20260503070600 | 49 | 27 | 5.2 | 12.2 | 0.00 | 0.00 | 0.00 | 48 | 1010.3 |
| 20260503070109 | 49 | 4 | 4.3 | 12.2 | 0.00 | 0.00 | 0.00 | 48 | 1010.3 |
| 20260503060111 | 50 | 8 | 6.1 | 10.4 | 0.00 | 0.00 | 0.00 | 46 | 1010.5 |
| 20260503055048 | 50 | 35 | 7.0 | 13.0 | 0.00 | 0.00 | 0.00 | 45 | 1010.4 |
| 20260503054546 | 50 | 359 | 7.0 | 13.0 | 0.00 | 0.00 | 0.00 | 45 | 1010.5 |
| 20260503054045 | 51 | 31 | 7.0 | 13.9 | 0.00 | 0.00 | 0.00 | 45 | 1010.6 |
| 20260503053544 | 51 | 15 | 5.2 | 13.9 | 0.00 | 0.00 | 0.00 | 46 | 1010.6 |
| 20260503053046 | 51 | 27 | 5.2 | 11.3 | 0.00 | 0.00 | 0.00 | 46 | 1010.6 |
| 20260503052543 | 51 | 45 | 4.3 | 10.4 | 0.00 | 0.00 | 0.00 | 46 | 1010.6 |
| 20260503052043 | 51 | 349 | 5.2 | 11.3 | 0.00 | 0.00 | 0.00 | 45 | 1010.7 |
| 20260503051542 | 51 | 354 | 4.3 | 12.2 | 0.00 | 0.00 | 0.00 | 45 | 1010.8 |
| 20260503051041 | 51 | 337 | 6.1 | 12.2 | 0.00 | 0.00 | 0.00 | 45 | 1010.9 |
| 20260503050541 | 51 | 48 | 6.1 | 11.3 | 0.00 | 0.00 | 0.00 | 45 | 1011.0 |
| 20260503050040 | 51 | 23 | 4.3 | 15.6 | 0.00 | 0.00 | 0.00 | 45 | 1010.9 |
| 20260503045540 | 51 | 27 | 5.2 | 15.6 | 0.00 | 0.00 | 0.00 | 44 | 1011.1 |
| 20260503045039 | 51 | 23 | 9.6 | 14.8 | 0.00 | 0.00 | 0.00 | 44 | 1011.0 |
| 20260503044607 | 52 | 23 | 6.1 | 12.2 | 0.00 | 0.00 | 0.00 | 44 | 1011.1 |
| 20260503044037 | 52 | 354 | 5.2 | 14.8 | 0.00 | 0.00 | 0.00 | 44 | 1011.1 |
| 20260503043536 | 52 | 31 | 9.6 | 14.8 | 0.00 | 0.00 | 0.00 | 43 | 1011.0 |
| 20260503043036 | 52 | 42 | 5.2 | 14.8 | 0.00 | 0.00 | 0.00 | 44 | 1011.1 |
| 20260503042535 | 52 | 345 | 8.7 | 13.0 | 0.00 | 0.00 | 0.00 | 43 | 1011.1 |
| 20260503042036 | 52 | 31 | 6.1 | 10.4 | 0.00 | 0.00 | 0.00 | 43 | 1011.0 |
| 20260503041533 | 52 | 359 | 2.6 | 9.6 | 0.00 | 0.00 | 0.00 | 44 | 1011.1 |
| 20260503041035 | 52 | 10 | 5.2 | 11.3 | 0.00 | 0.00 | 0.00 | 43 | 1011.2 |
| 20260503040531 | 52 | 31 | 6.1 | 11.3 | 0.00 | 0.00 | 0.00 | 43 | 1011.2 |
| 20260503040030 | 52 | 54 | 3.5 | 7.0 | 0.00 | 0.00 | 0.00 | 44 | 1011.2 |
| 20260503035530 | 52 | 50 | 2.6 | 7.8 | 0.00 | 0.00 | 0.00 | 44 | 1011.1 |
| 20260503035031 | 52 | 16 | 3.5 | 9.6 | 0.00 | 0.00 | 0.00 | 43 | 1011.0 |
| 20260503034532 | 53 | 20 | 6.1 | 10.4 | 0.00 | 0.00 | 0.00 | 43 | 1011.0 |
| 20260503034031 | 53 | 11 | 6.1 | 10.4 | 0.00 | 0.00 | 0.00 | 42 | 1011.1 |
| 20260503033528 | 53 | 359 | 4.3 | 11.3 | 0.00 | 0.00 | 0.00 | 43 | 1011.1 |
| 20260503033029 | 53 | 354 | 4.3 | 10.4 | 0.00 | 0.00 | 0.00 | 43 | 1010.9 |
| 20260503032529 | 53 | 345 | 4.3 | 9.6 | 0.00 | 0.00 | 0.00 | 43 | 1011.0 |
| 20260503032030 | 53 | 10 | 4.3 | 8.7 | 0.00 | 0.00 | 0.00 | 43 | 1011.1 |
| 20260503031528 | 53 | 4 | 4.3 | 8.7 | 0.00 | 0.00 | 0.00 | 42 | 1011.0 |
| 20260503031029 | 53 | 354 | 2.6 | 8.7 | 0.00 | 0.00 | 0.00 | 42 | 1011.0 |
| 20260503030527 | 53 | 16 | 2.6 | 11.3 | 0.00 | 0.00 | 0.00 | 42 | 1011.0 |
| 20260503030031 | 54 | 23 | 4.3 | 11.3 | 0.00 | 0.00 | 0.00 | 42 | 1011.1 |
| 20260503025529 | 54 | 18 | 5.2 | 10.4 | 0.00 | 0.00 | 0.00 | 42 | 1011.1 |
| 20260503025030 | 54 | 354 | 3.5 | 8.7 | 0.00 | 0.00 | 0.00 | 41 | 1011.1 |
| 20260503024527 | 54 | 4 | 5.2 | 10.4 | 0.00 | 0.00 | 0.00 | 41 | 1011.1 |
| 20260503024027 | 54 | 359 | 3.5 | 7.0 | 0.00 | 0.00 | 0.00 | 41 | 1011.0 |
| 20260503023526 | 54 | 354 | 1.7 | 9.6 | 0.00 | 0.00 | 0.00 | 41 | 1011.1 |
| 20260503023027 | 54 | 65 | 3.5 | 9.6 | 0.00 | 0.00 | 0.00 | 41 | 1011.0 |
| 20260503022526 | 54 | 359 | 3.5 | 9.6 | 0.00 | 0.00 | 0.00 | 41 | 1011.0 |
| 20260503022029 | 54 | 339 | 6.1 | 9.6 | 0.00 | 0.00 | 0.00 | 40 | 1011.0 |
| 20260503021527 | 54 | 39 | 5.2 | 9.6 | 0.00 | 0.00 | 0.00 | 40 | 1011.0 |
| 20260503021029 | 55 | 31 | 4.3 | 9.6 | 0.00 | 0.00 | 0.00 | 40 | 1010.9 |
| 20260503020529 | 55 | 359 | 4.3 | 9.6 | 0.00 | 0.00 | 0.00 | 40 | 1011.0 |
| 20260503020034 | 55 | 11 | 4.3 | 9.6 | 0.00 | 0.00 | 0.00 | 40 | 1011.1 |
| 20260503015526 | 55 | 354 | 3.5 | 11.3 | 0.00 | 0.00 | 0.00 | 40 | 1011.0 |
| 20260503015025 | 55 | 18 | 5.2 | 11.3 | 0.00 | 0.00 | 0.00 | 40 | 1011.0 |
| 20260503014526 | 55 | 4 | 4.3 | 9.6 | 0.00 | 0.00 | 0.00 | 40 | 1011.0 |
| 20260503014026 | 55 | 17 | 4.3 | 11.3 | 0.00 | 0.00 | 0.00 | 40 | 1011.1 |
| 20260503013526 | 55 | 12 | 4.3 | 7.8 | 0.00 | 0.00 | 0.00 | 40 | 1011.2 |
| 20260503013025 | 55 | 16 | 2.6 | 7.8 | 0.00 | 0.00 | 0.00 | 41 | 1011.2 |
| 20260503012525 | 56 | 324 | 2.6 | 8.7 | 0.00 | 0.00 | 0.00 | 40 | 1011.1 |
| 20260503012026 | 56 | 4 | 5.2 | 10.4 | 0.00 | 0.00 | 0.00 | 39 | 1011.2 |
| 20260503011524 | 56 | 17 | 6.1 | 10.4 | 0.00 | 0.00 | 0.00 | 39 | 1011.1 |
| 20260503011024 | 56 | 359 | 2.6 | 8.7 | 0.00 | 0.00 | 0.00 | 40 | 1011.0 |
| 20260503010525 | 56 | 348 | 4.3 | 10.4 | 0.00 | 0.00 | 0.00 | 39 | 1011.0 |
| 20260503010025 | 56 | 18 | 6.1 | 10.4 | 0.00 | 0.00 | 0.00 | 39 | 1011.1 |
| 20260503005524 | 56 | 354 | 4.3 | 10.4 | 0.00 | 0.00 | 0.00 | 40 | 1010.8 |
| 20260503005024 | 56 | 17 | 5.2 | 9.6 | 0.00 | 0.00 | 0.00 | 40 | 1010.8 |